COSMOS 1232

导读

COSMOS 1232是苏联(CIS)于1980年12月23日08:00发射的"宇宙"系列卫星,该系列是苏联/俄罗斯大规模军用卫星工程,多数承担军事侦察、空间物理探测等任务。作为冷战时期航天活动产物,它延续了苏联系统性空间探索布局,见证了当时航天技术发展,这类卫星长期为苏联战略安全与空间科学研究提供支持。

Basic Information
目录编号:
12111
目录名称:
COSMOS 1232
国际标识:
1980-102E
轨道中心:
EARTH
卫星名称:
COSMOS 1232
卫星全名:
--
卫星状态:
在轨 (已飞行16701 天)
发射日期:
1980-12-23 UTC
国别 :
俄罗斯(独联体) (CIS)
星等 :
--
This satellite is enrolled in the Space Conjunction Data Service (SCDS) and the current flight risk assessment level is: No High Risk
Orbit Information
数据来源 国际轨道数据 AOE轨道数据
星历时间 2026-09-14T02:53:50+0800
12小时前
查看轨道信息
2026-09-13T00:00:00+0800
1天前
查看轨道信息
半长轴 7816.254km 7816.253km
偏心率 0.0033617 0.0033589
轨道倾角 73.991° 73.990°
近地点辐角 317.975° 319.743°
升交点赤经 263.922° 265.431°
平近点角 215.630° 186.757°
近地点 1411.841km 1411.861km
远地点 1464.393km 1464.371km
周期 114.619分钟 114.619分钟
每日圈数 12.563332 12.563333
Detailed Information
使用方式:
暂无
2D Orbit Map
3D Orbit Map
Orbit Altitude Analysis Chart
Orbit Inclination Analysis Chart
Orbit Comprehensive Analysis Chart
View Comprehensive Chart
Miss Distance Evolution Trend with All Objects Subscribe to Flight Safety Assessment
Collision Probability Evolution Trend with All Objects Subscribe to Flight Safety Assessment